Location: Newark
(50.4348°N, 30.5552°E)
Time: 11:26:39
(UTC+00:00)

Transit 2A Rocket - All Passes

Search period start: 20 January 2020 00:00
Search period end: 30 January 2020 00:00
Orbit: 593 x 910 km, 66.7° (Epoch: 19 January)

Date Brightness Start Highest point End Pass type
(mag) Time Alt. Az. Time Alt. Az. Time Alt. Az.
20 Jan - 04:20:32 10° S 04:24:37 43° ESE 04:28:44 10° NE visible
20 Jan - 06:03:23 10° WSW 06:07:16 32° NW 06:11:14 10° NNE daylight
20 Jan - 07:49:30 10° NW 07:51:14 12° NNW 07:53:01 10° N daylight
20 Jan - 09:34:23 10° N 09:35:53 11° NNE 09:37:25 10° NNE daylight
20 Jan - 11:16:05 10° NNW 11:20:01 26° NE 11:24:12 10° E daylight
20 Jan - 12:58:15 10° NW 13:02:59 71° SW 13:08:07 10° SSE daylight
20 Jan - 14:42:58 10° W 14:44:49 12° WSW 14:46:42 10° SW daylight
21 Jan - 03:38:44 10° S 03:42:16 25° ESE 03:45:50 10° ENE visible
21 Jan - 05:20:23 10° WSW 05:24:32 48° NW 05:28:49 10° NNE daylight
21 Jan - 07:05:44 10° WNW 07:08:11 15° NNW 07:10:42 10° NNE daylight
21 Jan - 08:51:58 10° N 08:52:46 10° N 08:53:34 10° NNE daylight
21 Jan - 10:33:45 10° NNW 10:37:09 20° NNE 10:40:44 10° ENE daylight
21 Jan - 12:15:43 10° NW 12:20:26 74° NE 12:25:35 10° SE daylight
21 Jan - 13:59:03 10° WNW 14:02:35 20° WSW 14:06:18 10° SSW daylight
22 Jan - 02:57:38 10° SE 03:00:01 15° ESE 03:02:26 10° ENE visible
22 Jan - 04:37:37 10° SW 04:41:56 79° NW 04:46:20 10° NE visible
22 Jan - 06:22:07 10° WNW 06:25:13 19° NNW 06:28:22 10° NNE daylight
22 Jan - 08:08:58 10° N 08:09:38 10° N 08:10:18 10° N daylight
22 Jan - 09:51:25 10° NNW 09:54:11 15° NNE 09:57:04 10° ENE daylight
22 Jan - 11:33:15 10° NNW 11:37:48 48° NE 11:42:44 10° ESE daylight
22 Jan - 13:15:58 10° NW 13:20:15 32° WSW 13:24:51 10° S daylight
23 Jan - 03:55:11 10° SSW 03:59:25 62° ESE 04:03:44 10° NE visible
23 Jan - 05:38:43 10° W 05:42:19 25° NW 05:46:01 10° NNE daylight
23 Jan - 07:25:11 10° NNW 07:26:30 11° N 07:27:49 10° N daylight
23 Jan - 09:09:05 10° N 09:11:09 13° NNE 09:13:15 10° NE daylight
23 Jan - 10:50:50 10° NNW 10:55:05 33° NE 10:59:39 10° ESE daylight
23 Jan - 12:33:11 10° NW 12:37:50 52° WSW 12:42:54 10° SSE daylight
24 Jan - 03:13:05 10° S 03:17:00 35° ESE 03:21:00 10° NE visible
24 Jan - 04:55:32 10° WSW 04:59:32 36° NW 05:03:38 10° NNE visible
24 Jan - 06:41:22 10° NW 06:43:24 13° NNW 06:45:29 10° N daylight
24 Jan - 08:26:43 10° N 08:28:03 11° N 08:29:24 10° NNE daylight
24 Jan - 10:08:28 10° NNW 10:12:16 24° NE 10:16:18 10° E daylight
24 Jan - 11:50:34 10° NW 11:55:20 83° WSW 12:00:34 10° SSE daylight
24 Jan - 13:34:37 10° WNW 13:37:18 15° WSW 13:40:06 10° SW daylight
25 Jan - 02:31:28 10° SSE 02:34:42 21° ESE 02:37:58 10° ENE visible
25 Jan - 04:12:37 10° SW 04:16:51 57° NW 04:21:12 10° NNE visible
25 Jan - 05:57:40 10° WNW 06:00:22 16° NNW 06:03:09 10° NNE daylight
25 Jan - 07:44:08 10° N 07:44:55 10° N 07:45:42 10° NNE daylight
25 Jan - 09:26:08 10° NNW 09:29:22 18° NNE 09:32:46 10° ENE daylight
25 Jan - 11:08:03 10° NNW 11:12:46 64° NE 11:17:54 10° SE daylight
25 Jan - 12:51:09 10° WNW 12:55:01 24° WSW 12:59:11 10° SSW daylight
26 Jan - 01:50:50 10° SE 01:52:30 12° ESE 01:54:10 10° E visible
26 Jan - 03:29:57 10° SW 03:34:16 87° SE 03:38:41 10° NE visible
26 Jan - 05:14:08 10° W 05:17:25 21° NNW 05:20:49 10° NNE daylight
26 Jan - 07:00:48 10° NNW 07:01:46 11° N 07:02:44 10° N daylight
26 Jan - 08:43:48 10° NNW 08:46:23 15° NNE 08:49:04 10° NE daylight
26 Jan - 10:25:37 10° NNW 10:30:07 42° NE 10:34:59 10° ESE daylight
26 Jan - 12:08:11 10° NW 12:12:40 38° WSW 12:17:31 10° S daylight
27 Jan - 02:47:38 10° SSW 02:51:48 51° ESE 02:56:03 10° NE visible
27 Jan - 04:30:48 10° W 04:34:34 28° NW 04:38:27 10° NNE visible
27 Jan - 06:17:02 10° NW 06:18:39 12° NNW 06:20:18 10° N daylight
27 Jan - 08:01:27 10° N 08:03:19 12° NNE 08:05:14 10° NE daylight
27 Jan - 09:43:13 10° NNW 09:47:21 30° NE 09:51:48 10° E daylight
27 Jan - 11:25:28 10° NW 11:30:14 62° WSW 11:35:25 10° SSE daylight
27 Jan - 13:11:18 10° W 13:11:59 10° WSW 13:12:40 10° WSW daylight
28 Jan - 02:05:41 10° S 02:09:26 30° ESE 02:13:13 10° NE visible
28 Jan - 03:47:43 10° WSW 03:51:49 42° NW 03:56:03 10° NNE visible
28 Jan - 05:33:16 10° NW 05:35:34 14° NNW 05:37:56 10° NNE daylight
28 Jan - 07:19:00 10° N 07:20:12 11° N 07:21:25 10° NNE daylight
28 Jan - 09:00:51 10° NNW 09:04:31 22° NNE 09:08:24 10° E daylight
28 Jan - 10:42:54 10° NW 10:47:42 85° NE 10:52:57 10° SE daylight
28 Jan - 12:26:30 10° WNW 12:29:46 18° WSW 12:33:12 10° SSW daylight
29 Jan - 01:24:18 10° SSE 01:27:09 17° ESE 01:30:02 10° ENE visible
29 Jan - 03:04:53 10° SW 03:09:09 67° NW 03:13:34 10° NNE visible
29 Jan - 04:49:37 10° WNW 04:52:34 17° NNW 04:55:36 10° NNE visible
29 Jan - 06:36:11 10° N 06:37:03 10° N 06:37:56 10° N daylight
29 Jan - 08:18:30 10° NNW 08:21:35 17° NNE 08:24:47 10° ENE daylight
29 Jan - 10:00:24 10° NNW 10:05:06 55° NE 10:10:13 10° SE daylight
29 Jan - 11:43:17 10° NW 11:47:28 28° WSW 11:51:57 10° S daylight
